Date,TemperatureHighF,TemperatureAvgF,TemperatureLowF,DewpointHighF,DewpointAvgF,DewpointLowF,HumidityHigh,HumidityAvg,HumidityLow,PressureMaxIn,PressureMinIn,WindSpeedMaxMPH,WindSpeedAvgMPH,GustSpeedMaxMPH,PrecipitationSumIn
2013-1-1,24,15,3,24,13,0,100,93,86,29.35,29.22,5,4,0,0.00
2013-1-2,13,6,-7,12,4,-10,96,92,86,29.52,29.32,5,3,0,0.00
2013-1-3,16,5,-9,16,1,-13,98,83,65,29.54,29.42,3,1,0,0.00
2013-1-4,24,22,18,22,20,18,99,91,81,29.38,29.31,5,5,0,0.00
2013-1-5,27,23,16,23,18,14,98,85,64,29.65,29.33,5,3,0,0.00
2013-1-6,27,24,21,27,22,17,100,93,87,29.57,29.41,4,2,0,0.00
2013-1-7,27,21,17,27,18,15,100,90,75,29.78,29.52,3,2,0,0.00
2013-1-8,32,27,23,19,18,18,79,69,56,29.77,29.70,4,3,0,0.00
2013-1-9,39,29,20,26,18,14,90,68,44,29.82,29.56,3,2,0,0.00
2013-1-29,34,31,27,34,31,27,100,100,100,29.61,29.48,4,1,0,0.00
2013-1-30,55,48,36,52,48,36,100,97,85,29.49,29.02,5,4,0,0.00
2013-1-31,33,24,16,33,17,8,100,76,64,29.03,28.66,8,7,0,0.00
2013-2-1,15,13,8,10,5,1,88,72,63,29.47,29.08,5,4,0,0.00
2013-2-2,16,10,3,10,4,-2,95,77,61,29.58,29.44,3,2,0,0.00
2013-2-3,19,11,1,8,5,-1,94,78,55,29.41,29.21,4,1,0,0.00
2013-2-4,13,11,7,11,5,0,95,77,57,29.32,29.18,5,4,0,0.00
2013-2-5,21,13,2,14,6,0,92,74,52,29.41,29.33,3,1,0,0.00
2013-2-6,23,18,10,19,12,-2,99,79,44,29.70,29.34,5,3,0,0.00
2013-2-7,20,12,1,2,-1,-5,74,54,42,29.89,29.72,5,3,0,0.00
2013-2-8,18,15,13,17,13,3,98,90,59,29.72,29.22,13,10,0,0.00
2013-2-9,12,7,3,11,3,-5,94,84,64,29.69,29.28,5,3,0,0.00
2013-2-10,30,17,1,9,-2,-9,71,45,25,29.86,29.72,2,1,0,0.00
2013-2-11,41,32,26,39,26,-5,100,82,22,29.65,29.19,5,3,0,0.00
2013-2-12,27,26,23,26,25,21,100,97,90,29.35,29.18,6,5,0,0.00
2013-2-13,26,22,17,22,19,15,100,88,68,29.34,29.24,3,2,0,0.00
2013-2-14,32,24,13,21,18,12,95,79,57,29.44,29.27,3,1,0,0.00
2013-2-15,38,32,26,29,24,18,99,73,59,29.45,29.40,4,2,0,0.00
2013-2-16,22,20,14,22,16,3,99,84,60,29.43,29.29,3,2,0,0.00
2013-2-17,11,7,1,2,-2,-6,83,68,52,29.20,29.05,7,5,0,0.00
2013-2-18,17,8,-1,2,-4,-7,80,60,36,29.57,29.29,7,5,0,0.00
2013-2-19,43,31,15,32,20,-3,100,68,41,29.57,29.14,4,2,0,0.00
2013-2-20,22,16,13,21,15,12,99,96,93,29.27,29.13,5,2,0,0.00
2013-2-21,15,12,8,12,8,6,97,85,69,29.73,29.22,7,4,0,0.00
2013-2-22,33,25,14,20,18,14,99,75,57,29.81,29.71,4,2,0,0.00
2013-2-23,27,25,23,27,25,22,100,98,93,29.68,29.39,5,4,0,0.00
2013-2-24,32,28,24,31,28,24,100,99,96,29.41,29.27,5,2,0,0.00
2013-2-25,28,24,19,28,24,19,100,99,97,29.69,29.46,2,1,0,0.00
2013-2-26,33,26,20,27,24,20,100,90,69,29.77,29.58,7,3,0,0.00
2013-2-27,31,28,25,31,28,25,100,100,99,29.51,29.15,14,11,0,0.00
2013-2-28,32,30,26,32,30,26,100,100,100,29.13,29.10,3,1,0,0.00
2013-3-1,29,26,23,27,25,22,100,94,85,29.24,29.12,4,3,0,0.00
2013-3-2,26,23,22,23,22,22,100,96,87,29.23,29.20,3,3,0,0.00
2013-3-4,21,20,17,20,18,16,98,96,91,29.34,29.23,4,3,0,0.00
2013-3-5,32,24,17,25,22,16,98,90,74,29.56,29.38,5,2,0,0.00
2013-3-6,27,26,24,27,26,21,100,96,86,29.58,29.51,10,8,0,0.00
2013-3-7,28,24,22,25,22,20,100,91,81,29.59,29.56,7,3,0,0.00
2013-3-8,30,24,21,25,23,21,99,94,78,29.73,29.53,4,3,0,0.00
2013-3-9,48,34,20,25,17,13,86,53,25,29.83,29.72,3,2,0,0.00
2013-3-10,53,42,30,23,16,10,56,38,18,29.84,29.74,4,2,0,0.00
2013-3-11,48,41,33,32,21,13,79,49,24,29.74,29.60,4,2,0,0.00
2013-3-12,44,41,32,44,41,32,100,98,88,29.57,29.30,6,4,0,0.00
2013-3-13,32,28,26,32,28,22,100,99,85,29.36,29.31,3,3,0,0.00
2013-3-14,19,14,11,16,10,4,93,83,70,29.30,29.24,6,4,0,0.00
2013-3-15,25,18,8,24,12,2,100,78,48,29.32,29.13,6,4,0,0.00
2013-3-16,26,19,12,20,10,6,98,69,41,29.34,29.21,3,2,0,0.00
2013-3-17,23,17,9,13,4,-3,96,60,33,29.72,29.35,5,3,0,0.00
2013-3-18,30,20,1,18,-2,-8,96,43,20,29.82,29.58,6,3,0,0.00
2013-3-19,25,23,20,25,22,19,100,97,94,29.42,29.19,13,9,0,0.00
2013-3-20,22,18,15,19,17,14,98,95,87,29.26,29.19,5,3,0,0.00
2013-3-21,29,20,12,17,12,6,97,72,37,29.26,29.14,3,2,0,0.00
2013-3-22,24,19,10,23,17,8,98,92,78,29.25,29.14,4,3,0,0.00
2013-3-23,29,23,18,20,17,14,99,81,54,29.31,29.19,6,4,0,0.00
2013-3-24,31,25,22,20,19,18,87,79,61,29.36,29.30,3,2,0,0.00
2013-3-25,31,25,22,22,20,18,87,79,62,29.26,29.11,5,3,0,0.00
2013-3-26,27,25,24,27,24,23,100,97,93,29.24,29.14,2,2,0,0.00
2013-3-27,36,30,24,25,21,17,75,69,62,29.37,29.35,3,2,0,0.00
2013-3-28,39,32,28,30,29,28,100,88,68,29.51,29.43,3,1,0,0.00
2013-3-29,39,33,29,30,29,28,97,87,64,29.61,29.57,3,2,0,0.00
2013-3-30,44,36,29,27,13,-100,93,55,27,29.63,29.58,3,2,0,0.00
2013-3-31,46,38,25,18,17,16,69,45,30,29.61,29.55,4,2,0,0.00
2013-4-1,36,35,34,36,35,34,100,100,100,29.19,29.17,2,2,0,0.00
2013-4-2,20,19,17,15,13,11,81,76,72,29.33,29.33,5,5,0,0.00
2013-4-3,29,19,16,15,11,4,84,72,33,29.48,29.38,6,5,0,0.00
2013-4-4,42,25,17,16,14,11,94,65,30,29.75,29.59,3,3,0,0.00
2013-4-5,42,33,31,17,15,13,54,47,32,29.46,29.37,3,2,0,0.00
2013-4-6,24,24,23,6,5,4,44,44,44,29.70,29.68,4,4,0,0.00
2013-4-7,36,35,34,23,14,6,60,44,30,29.71,29.62,3,2,0,0.00
2013-4-10,49,45,40,45,44,40,100,94,83,29.57,29.44,3,2,0,0.00
2013-4-11,39,35,33,39,34,28,100,96,79,29.53,29.43,2,1,0,0.00
2013-4-12,28,26,25,27,26,24,100,99,97,29.58,29.33,11,9,0,0.00
2013-4-13,39,33,27,34,32,27,100,93,76,29.46,29.33,5,1,0,0.00
2013-4-14,34,31,28,31,28,22,100,87,67,29.72,29.46,4,2,0,0.00
2013-4-15,56,41,25,30,26,22,91,59,35,29.85,29.74,3,2,0,0.00
2013-4-16,53,47,40,48,38,30,97,73,63,29.83,29.67,5,3,0,0.00
2013-4-17,51,44,35,41,30,23,100,63,34,29.86,29.67,4,3,0,0.00
2013-4-18,53,45,37,46,30,23,90,56,41,29.87,29.65,7,5,0,0.00
2013-4-19,62,57,50,56,53,49,97,85,72,29.61,29.26,6,3,0,0.00
2013-4-20,39,34,27,37,27,18,100,77,53,29.73,29.28,6,4,0,0.00
2013-4-21,40,30,20,16,13,7,77,52,28,30.13,29.74,4,3,0,0.00
2013-4-22,46,36,28,26,16,9,81,46,26,30.18,30.03,6,5,0,0.00
2013-4-23,36,31,25,33,28,23,95,90,86,30.01,29.75,8,6,0,0.00
2013-4-24,68,64,56,47,36,27,70,39,25,29.49,29.38,3,3,0,0.00
2013-4-25,55,40,32,49,28,20,96,66,33,29.77,29.35,6,4,0,0.00
2013-4-26,50,43,31,30,24,19,82,48,34,29.95,29.81,5,3,0,0.00
2013-4-27,58,46,31,33,22,-100,90,50,21,29.95,29.85,3,2,0,0.00
2013-4-28,68,55,37,34,28,25,66,38,22,29.86,29.74,3,2,0,0.00
2013-4-29,60,51,46,37,34,29,63,53,40,29.79,29.76,3,2,0,0.00
2013-4-30,65,58,44,40,34,27,59,42,33,29.88,29.80,3,2,0,0.00
2013-5-1,69,57,41,31,25,14,63,34,12,30.01,29.94,4,2,0,0.00
2013-5-2,72,60,41,38,33,24,77,41,20,30.02,29.92,8,3,0,0.00
2013-5-3,63,50,37,40,32,25,78,52,28,30.02,29.93,8,4,0,0.00
2013-5-4,67,56,38,40,32,23,92,47,19,29.94,29.82,5,3,0,0.00
2013-5-5,67,56,39,31,23,16,57,30,14,29.84,29.78,4,3,0,0.00
2013-5-6,72,58,37,38,27,11,82,37,13,29.80,29.72,3,2,0,0.00
2013-5-7,76,60,44,49,41,30,100,56,22,29.76,29.69,2,1,0,0.00
2013-5-8,66,58,50,56,53,48,100,83,58,29.77,29.65,6,4,0,0.00
2013-5-9,60,55,49,54,51,49,100,86,65,29.63,29.50,3,2,0,0.00
2013-5-10,69,58,45,54,46,-100,100,70,48,29.60,29.51,3,1,0,0.00
2013-5-11,62,50,55,53,-13,-100,100,56,63,29.49,29.33,2,1,0,0.00
2013-5-12,46,46,46,46,46,46,100,100,100,29.28,29.28,1,1,0,0.00
2013-5-13,88,57,32,27,-79,-100,82,12,65,29.60,29.39,5,2,0,0.00
2013-5-14,47,39,28,42,-68,-100,100,16,45,29.61,29.57,2,1,0,0.00
2013-5-15,56,47,32,56,-18,-100,100,54,86,29.60,29.26,3,2,0,0.00
2013-5-16,67,47,45,47,14,-100,79,50,25,29.44,29.29,5,3,0,0.00
2013-5-17,58,48,40,37,26,-100,86,63,35,29.78,29.50,3,2,0,0.00
2013-5-18,65,52,39,42,33,30,88,53,29,29.88,29.80,2,1,0,0.00
2013-5-19,58,50,41,51,48,41,100,92,73,29.88,29.76,2,1,0,0.00
2013-5-20,66,56,51,61,55,51,100,98,83,29.74,29.61,2,1,0,0.00
2013-5-21,79,68,58,64,60,58,100,78,51,29.61,29.51,2,1,0,0.00
2013-5-22,76,65,59,65,63,59,100,92,61,29.53,29.48,1,0,0,0.00
2013-5-23,70,65,59,65,60,55,100,84,73,29.49,29.41,1,1,0,0.00
2013-5-24,58,52,42,58,52,42,100,100,98,29.45,29.30,1,1,0,0.00
2013-5-25,37,36,34,37,36,34,100,100,100,29.50,29.41,2,1,0,0.00
2013-5-26,40,36,32,39,36,32,100,100,97,29.65,29.37,2,1,0,0.00
2013-5-27,61,47,33,38,36,32,100,68,33,29.75,29.66,2,1,0,0.00
2013-5-28,68,54,41,41,34,31,79,50,29,29.80,29.73,2,1,0,0.00
2013-5-29,68,60,51,65,59,51,100,97,84,29.71,29.62,1,0,0,0.00
2013-5-30,73,64,59,64,62,59,100,94,73,29.76,29.67,1,0,0,0.00
2013-5-31,83,72,59,66,62,58,100,72,45,29.78,29.66,1,0,0,0.00
2013-6-1,83,75,62,65,61,59,90,63,46,29.66,29.54,1,1,0,0.00
2013-6-2,83,71,61,65,64,61,100,79,53,29.53,29.40,1,0,0,0.00
2013-6-3,59,56,51,57,54,45,100,94,78,29.50,29.46,1,0,0,0.00
2013-6-4,58,47,39,43,40,37,94,78,55,29.66,29.47,2,1,0,0.00
2013-6-5,66,55,41,44,40,33,100,61,33,29.78,29.72,1,1,0,0.00
2013-6-6,63,56,46,49,42,32,81,61,47,29.75,29.69,2,1,0,0.00
2013-6-7,47,46,45,47,46,45,100,100,100,29.59,29.49,4,4,0,0.00
2013-6-8,56,52,47,56,52,47,100,100,100,29.57,29.33,2,1,0,0.00
2013-6-9,66,57,51,58,53,51,100,88,63,29.76,29.65,1,1,0,0.00
2013-6-10,61,56,49,57,53,48,100,91,67,29.80,29.57,4,2,0,0.00
2013-6-11,56,52,50,56,52,50,100,100,100,29.53,29.23,4,2,0,0.00
2013-6-12,59,53,49,52,50,49,100,91,70,29.47,29.23,2,1,0,0.00
2013-6-13,54,49,45,51,48,45,100,97,84,29.40,29.30,5,3,0,0.00
2013-6-14,64,61,57,53,50,47,81,67,57,29.43,29.38,1,1,0,0.00
2013-6-15,63,63,63,46,46,46,54,54,54,29.60,29.60,1,1,0,0.00
2013-6-16,66,61,56,58,54,51,100,82,59,29.52,29.37,2,1,0,0.00
2013-6-17,68,64,61,60,60,59,93,84,76,29.51,29.49,1,1,0,0.00
2013-6-18,61,54,50,60,53,48,100,95,91,29.58,29.55,2,1,0,0.00
2013-6-19,63,54,45,47,43,35,99,70,44,29.73,29.57,2,1,0,0.00
2013-6-20,70,54,42,45,41,33,89,66,26,29.87,29.78,1,1,0,0.00
2013-6-22,76,71,65,62,60,58,87,70,56,29.85,29.76,1,0,0,0.00
2013-6-23,83,72,64,68,65,61,100,80,61,29.78,29.68,1,0,0,0.00
2013-6-24,79,68,62,71,65,61,100,93,70,29.69,29.62,2,1,0,0.00
2013-6-25,80,68,58,68,64,58,100,91,63,29.64,29.46,1,1,0,0.00
2013-6-26,67,64,61,65,64,61,100,99,93,29.50,29.46,1,0,0,0.00
2013-6-27,74,67,59,68,65,59,100,92,73,29.50,29.37,2,0,0,0.00
2013-6-28,72,63,57,66,62,57,100,97,77,29.34,29.16,3,1,0,0.00
2013-6-29,74,66,61,65,62,61,100,90,67,29.37,29.18,1,0,0,0.00
2013-6-30,76,67,59,68,63,59,100,90,69,29.58,29.40,1,0,0,0.00
2013-7-1,72,65,61,68,65,61,100,98,82,29.69,29.59,2,1,0,0.00
2013-7-2,74,70,65,72,68,65,100,94,83,29.80,29.69,1,0,0,0.00
2013-7-3,76,70,66,69,68,66,100,93,81,29.85,29.78,1,0,0,0.00
2013-7-4,81,74,67,71,69,67,100,85,65,29.88,29.79,1,0,0,0.00
2013-7-5,83,73,65,73,69,65,100,88,61,29.83,29.74,1,0,0,0.00
2013-7-6,74,68,63,69,66,57,100,92,76,29.76,29.71,1,1,0,0.00
2013-7-7,83,71,63,72,67,57,100,86,64,29.72,29.62,1,0,0,0.00
2013-7-8,72,67,65,68,66,65,100,97,84,29.70,29.61,1,0,0,0.00
2013-7-9,75,68,61,68,65,61,100,91,73,29.73,29.68,1,0,0,0.00
2013-7-10,78,64,66,69,58,-100,100,92,74,29.67,29.48,2,0,0,0.00
2013-7-11,72,66,61,68,63,54,100,91,72,29.63,29.46,2,1,0,0.00
2013-7-12,73,65,58,61,58,54,89,76,61,29.82,29.66,3,2,0,0.00
2013-7-13,70,65,59,66,59,51,93,82,65,29.93,29.82,3,2,0,0.00
2013-7-14,78,72,66,69,68,66,100,89,74,29.97,29.90,1,0,0,0.00
2013-7-15,82,72,65,69,67,64,100,86,57,29.90,29.84,1,0,0,0.00
2013-7-16,81,72,61,66,64,61,100,78,52,29.89,29.84,1,1,0,0.00
2013-7-17,84,72,63,70,67,63,100,86,59,29.87,29.69,1,1,0,0.00
2013-7-18,82,76,70,72,70,68,94,82,71,29.73,29.66,1,0,0,0.00
2013-7-19,85,74,65,73,69,65,100,85,61,29.64,29.47,1,0,0,0.00
2013-7-20,74,68,59,67,64,59,100,89,71,29.50,29.41,1,0,0,0.00
2013-7-21,75,64,54,62,59,54,100,85,61,29.65,29.52,1,0,0,0.00
2013-7-22,73,64,57,67,62,57,100,94,77,29.66,29.53,2,1,0,0.00
2013-7-23,69,64,61,67,64,61,100,100,94,29.51,29.29,2,1,0,0.00
2013-7-24,69,62,49,63,58,46,100,89,67,29.61,29.30,2,1,0,0.00
2013-7-25,67,56,43,57,50,43,99,82,60,29.72,29.61,1,1,0,0.00
2013-7-26,66,58,51,59,54,51,99,89,72,29.68,29.65,1,0,0,0.00
2013-7-27,73,61,48,60,55,48,100,84,56,29.69,29.63,1,0,0,0.00
2013-7-28,70,64,59,65,61,56,100,93,76,29.64,29.60,2,1,0,0.00
2013-7-29,73,65,55,62,59,53,100,82,64,29.72,29.63,1,0,0,0.00
2013-7-30,69,61,50,59,55,50,100,81,62,29.77,29.72,1,0,0,0.00
2013-7-31,75,64,49,61,56,49,100,77,52,29.78,29.69,1,0,0,0.00
2013-8-1,68,61,54,63,59,52,100,96,78,29.69,29.50,1,1,0,0.00
2013-8-2,70,62,53,60,57,53,100,84,59,29.52,29.46,1,1,0,0.00
2013-8-3,70,61,53,60,54,51,100,81,54,29.52,29.45,1,1,0,0.00
2013-8-4,66,57,48,58,53,47,100,86,66,29.56,29.48,2,1,0,0.00
2013-8-5,66,54,46,48,46,43,100,77,45,29.68,29.56,2,1,0,0.00
2013-8-6,70,58,46,56,50,43,92,75,55,29.75,29.68,1,1,0,0.00
2013-8-7,69,62,55,60,56,53,95,82,62,29.78,29.71,1,0,0,0.00
2013-8-8,75,69,61,67,65,61,100,88,73,29.70,29.65,1,0,0,0.00
2013-8-9,70,67,65,69,67,65,100,99,96,29.66,29.47,1,0,0,0.00
2013-8-10,70,62,48,65,53,46,100,76,44,29.67,29.50,2,1,0,0.00
2013-8-11,70,57,46,53,51,46,100,80,51,29.73,29.66,1,0,0,0.00
2013-8-21,76,66,55,63,60,55,100,84,62,29.81,29.70,1,0,0,0.00
2013-8-22,72,65,56,65,62,56,100,89,74,29.70,29.53,1,0,0,0.00
2013-8-23,68,60,51,61,53,44,100,79,62,29.76,29.54,1,1,0,0.00
2013-8-24,72,58,43,56,41,-100,100,63,45,29.95,29.86,1,1,0,0.00
2013-8-25,73,59,46,57,51,45,100,77,49,29.97,29.81,1,1,0,0.00
2013-8-26,66,61,57,64,59,56,100,95,92,29.81,29.59,1,1,0,0.00
2013-8-27,75,66,61,66,64,61,100,95,75,29.59,29.52,1,0,0,0.00
2013-8-28,78,73,71,67,66,65,89,80,63,29.56,29.55,0,0,0,0.00
2013-8-29,66,61,58,62,60,58,100,97,87,29.70,29.60,2,1,0,0.00
2013-8-30,77,71,60,64,62,60,100,76,61,29.61,29.53,1,1,0,0.00
2013-8-31,70,62,62,69,57,-100,100,95,97,29.50,29.46,0,0,0,0.00
2013-9-1,76,68,64,69,66,64,100,93,74,29.54,29.49,1,0,0,0.00
2013-9-2,74,67,59,70,66,59,100,95,84,29.50,29.39,1,0,0,0.00
2013-9-3,62,60,58,60,58,55,100,95,77,29.44,29.39,1,0,0,0.00
2013-9-4,68,60,55,58,55,52,100,82,69,29.56,29.48,2,1,0,0.00
2013-9-5,60,53,41,56,46,36,100,81,46,29.74,29.51,1,0,0,0.00
2013-9-6,60,45,34,42,37,34,100,77,51,29.82,29.75,1,1,0,0.00
2013-9-17,53,41,31,43,36,31,100,83,51,29.97,29.82,2,1,0,0.00
2013-9-18,39,38,36,39,38,36,100,100,100,29.90,29.87,1,0,0,0.00
2013-9-19,74,56,44,49,46,43,99,73,32,29.75,29.69,1,1,0,0.00
2013-9-20,74,59,46,57,50,44,98,77,48,29.69,29.62,1,1,0,0.00
2013-9-21,69,57,51,59,45,-100,100,74,47,29.56,29.31,2,1,0,0.11
2013-9-22,59,50,43,59,47,41,100,91,76,29.43,29.26,2,1,0,0.03
2013-9-23,50,42,36,40,38,36,100,88,69,29.57,29.47,2,1,0,0.00
2013-9-24,56,45,34,43,39,34,100,82,54,29.59,29.49,2,1,0,0.00
2013-9-25,65,49,37,48,44,37,100,83,53,29.54,29.51,1,0,0,0.00
2013-9-26,58,50,39,46,44,39,100,81,61,29.69,29.58,1,0,0,0.00
2013-9-27,52,47,42,48,45,42,100,94,87,29.86,29.76,1,0,0,0.00
2013-10-2,65,61,51,59,57,49,94,86,79,29.56,29.53,2,2,0,0.00
2013-10-3,67,56,41,50,42,38,100,62,36,29.72,29.63,1,0,0,0.00
2013-10-4,57,52,50,57,51,45,100,96,81,29.69,29.66,1,0,0,0.34
2013-10-5,57,56,53,57,55,52,100,100,96,29.71,29.66,1,0,0,0.02
2013-10-6,54,52,49,54,52,49,100,100,100,29.71,29.70,4,3,0,0.16
2013-10-7,65,58,49,63,57,49,100,98,89,29.67,29.34,5,3,0,0.15
2013-10-8,53,46,41,42,37,35,98,71,49,29.87,29.59,3,2,0,0.00
2013-10-9,59,47,38,35,33,31,84,62,36,30.00,29.92,3,2,0,0.00
2013-10-11,64,64,64,23,23,23,21,21,21,29.75,29.75,3,3,0,0.00
2013-10-12,59,50,46,49,36,-100,100,71,70,29.90,29.80,6,5,0,0.00
2013-10-13,62,54,46,46,44,40,100,70,53,29.97,29.91,4,3,0,0.00
2013-11-13,20,20,20,11,11,11,66,66,66,29.67,29.67,2,2,0,0.00
2013-11-14,30,30,30,20,20,20,64,64,64,29.57,29.57,5,5,0,0.00
2013-11-15,37,37,37,16,16,16,42,42,42,29.67,29.67,1,1,0,0.00
2013-11-16,39,31,38,17,-7,-100,41,32,39,29.81,29.76,1,0,0,0.00
2013-11-17,49,49,49,49,49,49,100,100,100,29.58,29.58,3,3,0,0.00
2013-11-18,46,46,46,45,43,41,96,91,82,29.15,29.13,5,4,0,0.01
2013-11-19,27,24,20,18,17,15,81,75,68,29.74,29.41,5,4,0,0.00
2013-11-28,20,14,11,20,10,5,100,88,61,29.79,29.16,5,4,0,0.00
2013-11-29,15,15,15,8,8,8,75,75,75,29.94,29.94,2,2,0,0.00
2013-11-30,21,17,18,17,-2,-100,83,60,60,29.90,29.81,3,2,0,0.00
2013-12-1,32,32,32,26,26,26,80,80,80,29.67,29.67,1,1,0,0.00
2013-12-2,35,33,31,31,30,30,99,91,83,29.44,29.43,1,0,0,0.00
2013-12-3,34,31,28,32,30,28,100,97,90,29.46,29.42,2,2,0,0.00
2013-12-4,32,30,27,28,26,24,89,87,85,29.63,29.60,1,0,0,0.00
2013-12-11,16,15,12,11,9,6,80,77,76,29.55,29.53,4,3,0,0.00
2013-12-12,8,6,3,0,-1,-3,85,71,64,29.63,29.54,3,3,0,0.00
2013-12-13,14,12,11,13,11,9,96,93,88,29.48,29.40,3,3,0,0.00
2013-12-14,3,2,2,-1,-21,-100,89,70,85,29.87,29.58,11,6,0,0.00
2013-12-15,19,18,17,19,18,17,99,99,99,29.09,29.05,4,3,0,0.00
2013-12-16,10,9,9,4,3,1,77,73,66,29.45,29.37,5,4,0,0.00
2013-12-17,10,2,-5,8,0,-7,91,90,90,29.56,29.54,2,2,0,0.00
2013-12-18,17,15,14,17,15,13,99,98,97,29.41,29.38,2,1,0,0.00
2013-12-19,29,25,20,24,20,16,99,84,67,29.53,29.45,4,3,0,0.00
2013-12-20,44,41,39,40,36,31,100,85,61,29.51,29.44,3,2,0,0.08